Terminal Aerodrome Forecast
Issued by NWS Dodge City, KS

Home | Current Version | Previous Version | Graphics & Text | Print | Product List | Glossary Off
Versions: 1 2 3 4 5 6 7 8 9 10 11 12 13 14 15 16 17 18 19 20 21 22 23 24 25 26 27 28 29 30 31 32 33 34

333
FTUS43 KDDC 260520
TAFDDC
TAF
KDDC 260520Z 2606/2706 03006KT P6SM OVC150
     FM261000 07006KT P6SM OVC015
      TEMPO 2612/2615 3SM BR OVC010
     FM261600 09007KT P6SM BKN050
     FM261900 15012KT P6SM BKN070=

USA.gov is the U.S. government's official web portal to all federal, state and local government web resources and services.